Retour au catalogue

STARLINK-34218

ActifCommunicationsVLEO
NORAD 64338·PAYLOAD·🇺🇸 United States

Lancé Jun 10, 2025 depuis Cape Canaveral Space Force Station

Loading…

Prochains Passages (prochaines 24 heures)

TLE

FraisSource: CelesTrak SupGP

Époque: Sep 15, 2026, 02:53 UTC

1 64338C 25124X   26258.12062500  .00059255  00000+0  21462-2 0  2587
2 64338  42.9996 128.2846 0001490 276.6600  68.8277 15.27549440    17

Suivez STARLINK-34218 en temps réel avec AllMySat

Download on the App Store